Year,Month,Day,Hour,Minute,Value (Times are PST for temperature in C)
2016,04,07,00,00,7.80
2016,04,07,00,01,7.80
2016,04,07,00,02,7.70
2016,04,07,00,03,7.70
2016,04,07,00,04,7.70
2016,04,07,00,05,7.70
2016,04,07,00,06,7.70
2016,04,07,00,07,7.70
2016,04,07,00,08,7.70
2016,04,07,00,09,7.70
2016,04,07,00,10,7.70
2016,04,07,00,11,7.60
2016,04,07,00,12,7.60
2016,04,07,00,13,7.60
2016,04,07,00,14,7.60
2016,04,07,00,15,7.50
2016,04,07,00,16,7.50
2016,04,07,00,17,7.50
2016,04,07,00,18,7.40
2016,04,07,00,19,7.40
2016,04,07,00,20,7.40
2016,04,07,00,21,7.40
2016,04,07,00,22,7.40
2016,04,07,00,23,7.40
2016,04,07,00,24,7.30
2016,04,07,00,25,7.30
2016,04,07,00,26,7.30
2016,04,07,00,27,7.30
2016,04,07,00,28,7.30
2016,04,07,00,29,7.30
2016,04,07,00,30,7.20
2016,04,07,00,31,7.20
2016,04,07,00,32,7.20
2016,04,07,00,33,7.20
2016,04,07,00,34,7.20
2016,04,07,00,35,7.20
2016,04,07,00,36,7.20
2016,04,07,00,37,7.20
2016,04,07,00,38,7.20
2016,04,07,00,39,7.20
2016,04,07,00,40,7.20
2016,04,07,00,41,7.20
2016,04,07,00,42,7.20
2016,04,07,00,43,7.10
2016,04,07,00,44,7.10
2016,04,07,00,45,7.10
2016,04,07,00,46,7.20
2016,04,07,00,47,7.10
2016,04,07,00,48,7.10
2016,04,07,00,49,7.10
2016,04,07,00,50,7.10
2016,04,07,00,51,7.10
2016,04,07,00,52,7.10
2016,04,07,00,53,7.10
2016,04,07,00,54,7.00
2016,04,07,00,55,7.00
2016,04,07,00,56,7.00
2016,04,07,00,57,7.00
2016,04,07,00,58,6.90
2016,04,07,00,59,6.90
2016,04,07,01,00,6.90
2016,04,07,01,01,6.90
2016,04,07,01,02,6.90
2016,04,07,01,03,6.90
2016,04,07,01,04,6.90
2016,04,07,01,05,6.80
2016,04,07,01,06,6.80
2016,04,07,01,07,6.80
2016,04,07,01,08,6.80
2016,04,07,01,09,6.80
2016,04,07,01,10,6.80
2016,04,07,01,11,6.80
2016,04,07,01,12,6.80
2016,04,07,01,13,6.80
2016,04,07,01,14,6.80
2016,04,07,01,15,6.80
2016,04,07,01,16,6.70
2016,04,07,01,17,6.70
2016,04,07,01,18,6.70
2016,04,07,01,19,6.70
2016,04,07,01,20,6.70
2016,04,07,01,21,6.70
2016,04,07,01,22,6.70
2016,04,07,01,23,6.70
2016,04,07,01,24,6.70
2016,04,07,01,25,6.70
2016,04,07,01,26,6.70
2016,04,07,01,27,6.70
2016,04,07,01,28,6.60
2016,04,07,01,29,6.60
2016,04,07,01,30,6.60
2016,04,07,01,31,6.60
2016,04,07,01,32,6.60
2016,04,07,01,33,6.60
2016,04,07,01,34,6.60
2016,04,07,01,35,6.60
2016,04,07,01,36,6.60
2016,04,07,01,37,6.60
2016,04,07,01,38,6.60
2016,04,07,01,39,6.60
2016,04,07,01,40,6.50
2016,04,07,01,41,6.50
2016,04,07,01,42,6.50
2016,04,07,01,43,6.50
2016,04,07,01,44,6.50
2016,04,07,01,45,6.50
2016,04,07,01,46,6.50
2016,04,07,01,47,6.50
2016,04,07,01,48,6.40
2016,04,07,01,49,6.40
2016,04,07,01,50,6.40
2016,04,07,01,51,6.40
2016,04,07,01,52,6.40
2016,04,07,01,53,6.40
2016,04,07,01,54,6.40
2016,04,07,01,55,6.40
2016,04,07,01,56,6.40
2016,04,07,01,57,6.40
2016,04,07,01,58,6.40
2016,04,07,01,59,6.40
2016,04,07,02,00,6.30
2016,04,07,02,01,6.30
2016,04,07,02,02,6.30
2016,04,07,02,03,6.30
2016,04,07,02,04,6.30
2016,04,07,02,05,6.30
2016,04,07,02,06,6.30
2016,04,07,02,07,6.30
2016,04,07,02,08,6.30
2016,04,07,02,09,6.30
2016,04,07,02,10,6.30
2016,04,07,02,11,6.30
2016,04,07,02,12,6.30
2016,04,07,02,13,6.30
2016,04,07,02,14,6.30
2016,04,07,02,15,6.30
2016,04,07,02,16,6.30
2016,04,07,02,17,6.30
2016,04,07,02,18,6.20
2016,04,07,02,19,6.20
2016,04,07,02,20,6.20
2016,04,07,02,21,6.20
2016,04,07,02,22,6.20
2016,04,07,02,23,6.20
2016,04,07,02,24,6.20
2016,04,07,02,25,6.20
2016,04,07,02,26,6.20
2016,04,07,02,27,6.20
2016,04,07,02,28,6.20
2016,04,07,02,29,6.20
2016,04,07,02,30,6.20
2016,04,07,02,31,6.20
2016,04,07,02,32,6.20
2016,04,07,02,33,6.20
2016,04,07,02,34,6.10
2016,04,07,02,35,6.10
2016,04,07,02,36,6.10
2016,04,07,02,37,6.10
2016,04,07,02,38,6.10
2016,04,07,02,39,6.10
2016,04,07,02,40,6.10
2016,04,07,02,41,6.10
2016,04,07,02,42,6.10
2016,04,07,02,43,6.10
2016,04,07,02,44,6.10
2016,04,07,02,45,6.00
2016,04,07,02,46,6.00
2016,04,07,02,47,6.00
2016,04,07,02,48,6.00
2016,04,07,02,49,6.00
2016,04,07,02,50,6.00
2016,04,07,02,51,6.00
2016,04,07,02,52,6.00
2016,04,07,02,53,6.00
2016,04,07,02,54,6.00
2016,04,07,02,55,6.00
2016,04,07,02,56,6.00
2016,04,07,02,57,5.90
2016,04,07,02,58,5.90
2016,04,07,02,59,5.90
2016,04,07,03,00,5.90
2016,04,07,03,01,5.90
2016,04,07,03,02,5.90
2016,04,07,03,03,5.90
2016,04,07,03,04,5.90
2016,04,07,03,05,5.90
2016,04,07,03,06,5.90
2016,04,07,03,07,5.90
2016,04,07,03,08,5.90
2016,04,07,03,09,5.90
2016,04,07,03,10,5.90
2016,04,07,03,11,5.90
2016,04,07,03,12,5.90
2016,04,07,03,13,5.80
2016,04,07,03,14,5.80
2016,04,07,03,15,5.80
2016,04,07,03,16,5.80
2016,04,07,03,17,5.80
2016,04,07,03,18,5.80
2016,04,07,03,19,5.80
2016,04,07,03,20,5.80
2016,04,07,03,21,5.80
2016,04,07,03,22,5.80
2016,04,07,03,23,5.80
2016,04,07,03,24,5.80
2016,04,07,03,25,5.80
2016,04,07,03,26,5.80
2016,04,07,03,27,5.80
2016,04,07,03,28,5.80
2016,04,07,03,29,5.80
2016,04,07,03,30,5.80
2016,04,07,03,31,5.80
2016,04,07,03,32,5.80
2016,04,07,03,33,5.80
2016,04,07,03,34,5.80
2016,04,07,03,35,5.80
2016,04,07,03,36,5.70
2016,04,07,03,37,5.70
2016,04,07,03,38,5.70
2016,04,07,03,39,5.70
2016,04,07,03,40,5.70
2016,04,07,03,41,5.70
2016,04,07,03,42,5.70
2016,04,07,03,43,5.60
2016,04,07,03,44,5.60
2016,04,07,03,45,5.60
2016,04,07,03,46,5.60
2016,04,07,03,47,5.60
2016,04,07,03,48,5.60
2016,04,07,03,49,5.60
2016,04,07,03,50,5.60
2016,04,07,03,51,5.60
2016,04,07,03,52,5.60
2016,04,07,03,53,5.60
2016,04,07,03,54,5.60
2016,04,07,03,55,5.60
2016,04,07,03,56,5.60
2016,04,07,03,57,5.60
2016,04,07,03,58,5.60
2016,04,07,03,59,5.50
2016,04,07,04,00,5.50
2016,04,07,04,01,5.50
2016,04,07,04,02,5.50
2016,04,07,04,03,5.50
2016,04,07,04,04,5.50
2016,04,07,04,05,5.50
2016,04,07,04,06,5.50
2016,04,07,04,07,5.40
2016,04,07,04,08,5.40
2016,04,07,04,09,5.40
2016,04,07,04,10,5.40
2016,04,07,04,11,5.40
2016,04,07,04,12,5.40
2016,04,07,04,13,5.40
2016,04,07,04,14,5.40
2016,04,07,04,15,5.40
2016,04,07,04,16,5.40
2016,04,07,04,17,5.40
2016,04,07,04,18,5.40
2016,04,07,04,19,5.30
2016,04,07,04,20,5.30
2016,04,07,04,21,5.30
2016,04,07,04,22,5.30
2016,04,07,04,23,5.30
2016,04,07,04,24,5.30
2016,04,07,04,25,5.30
2016,04,07,04,26,5.30
2016,04,07,04,27,5.30
2016,04,07,04,28,5.30
2016,04,07,04,29,5.30
2016,04,07,04,30,5.20
2016,04,07,04,31,5.20
2016,04,07,04,32,5.20
2016,04,07,04,33,5.20
2016,04,07,04,34,5.20
2016,04,07,04,35,5.20
2016,04,07,04,36,5.20
2016,04,07,04,37,5.20
2016,04,07,04,38,5.10
2016,04,07,04,39,5.10
2016,04,07,04,40,5.10
2016,04,07,04,41,5.10
2016,04,07,04,42,5.10
2016,04,07,04,43,5.10
2016,04,07,04,44,5.10
2016,04,07,04,45,5.10
2016,04,07,04,46,5.10
2016,04,07,04,47,5.10
2016,04,07,04,48,5.00
2016,04,07,04,49,5.00
2016,04,07,04,50,5.00
2016,04,07,04,51,5.00
2016,04,07,04,52,5.00
2016,04,07,04,53,5.00
2016,04,07,04,54,4.90
2016,04,07,04,55,4.90
2016,04,07,04,56,4.90
2016,04,07,04,57,4.90
2016,04,07,04,58,4.90
2016,04,07,04,59,4.90
2016,04,07,05,00,4.90
2016,04,07,05,01,4.90
2016,04,07,05,02,4.80
2016,04,07,05,03,4.80
2016,04,07,05,04,4.80
2016,04,07,05,05,4.80
2016,04,07,05,06,4.80
2016,04,07,05,07,4.80
2016,04,07,05,08,4.80
2016,04,07,05,09,4.80
2016,04,07,05,10,4.80
2016,04,07,05,11,4.80
2016,04,07,05,12,4.80
2016,04,07,05,13,4.80
2016,04,07,05,14,4.80
2016,04,07,05,15,4.80
2016,04,07,05,16,4.80
2016,04,07,05,17,4.80
2016,04,07,05,18,4.80
2016,04,07,05,19,4.80
2016,04,07,05,20,4.80
2016,04,07,05,21,4.80
2016,04,07,05,22,4.80
2016,04,07,05,23,4.80
2016,04,07,05,24,4.80
2016,04,07,05,25,4.80
2016,04,07,05,26,4.80
2016,04,07,05,27,4.80
2016,04,07,05,28,4.80
2016,04,07,05,29,4.70
2016,04,07,05,30,4.70
2016,04,07,05,31,4.70
2016,04,07,05,32,4.80
2016,04,07,05,33,4.80
2016,04,07,05,34,4.80
2016,04,07,05,35,4.80
2016,04,07,05,36,4.80
2016,04,07,05,37,4.80
2016,04,07,05,38,4.80
2016,04,07,05,39,4.80
2016,04,07,05,40,4.70
2016,04,07,05,41,4.70
2016,04,07,05,42,4.70
2016,04,07,05,43,4.80
2016,04,07,05,44,4.80
2016,04,07,05,45,4.80
2016,04,07,05,46,4.80
2016,04,07,05,47,4.80
2016,04,07,05,48,4.80
2016,04,07,05,49,4.70
2016,04,07,05,50,4.70
2016,04,07,05,51,4.70
2016,04,07,05,52,4.70
2016,04,07,05,53,4.70
2016,04,07,05,54,4.70
2016,04,07,05,55,4.70
2016,04,07,05,56,4.70
2016,04,07,05,57,4.70
2016,04,07,05,58,4.70
2016,04,07,05,59,4.70
2016,04,07,06,00,4.60
2016,04,07,06,01,4.60
2016,04,07,06,02,4.60
2016,04,07,06,03,4.60
2016,04,07,06,04,4.60
2016,04,07,06,05,4.60
2016,04,07,06,06,4.60
2016,04,07,06,07,4.60
2016,04,07,06,08,4.60
2016,04,07,06,09,4.50
2016,04,07,06,10,4.50
2016,04,07,06,11,4.50
2016,04,07,06,12,4.50
2016,04,07,06,13,4.50
2016,04,07,06,14,4.40
2016,04,07,06,15,4.40
2016,04,07,06,16,4.40
2016,04,07,06,17,4.40
2016,04,07,06,18,4.40
2016,04,07,06,19,4.40
2016,04,07,06,20,4.40
2016,04,07,06,21,4.40
2016,04,07,06,22,4.40
2016,04,07,06,23,4.40
2016,04,07,06,24,4.40
2016,04,07,06,25,4.40
2016,04,07,06,26,4.40
2016,04,07,06,27,4.40
2016,04,07,06,28,4.40
2016,04,07,06,29,4.40
2016,04,07,06,30,4.40
2016,04,07,06,31,4.40
2016,04,07,06,32,4.40
2016,04,07,06,33,4.30
2016,04,07,06,34,4.30
2016,04,07,06,35,4.30
2016,04,07,06,36,4.30
2016,04,07,06,37,4.30
2016,04,07,06,38,4.30
2016,04,07,06,39,4.30
2016,04,07,06,40,4.30
2016,04,07,06,41,4.30
2016,04,07,06,42,4.30
2016,04,07,06,43,4.30
2016,04,07,06,44,4.30
2016,04,07,06,45,4.30
2016,04,07,06,46,4.30
2016,04,07,06,47,4.30
2016,04,07,06,48,4.30
2016,04,07,06,49,4.30
2016,04,07,06,50,4.30
2016,04,07,06,51,4.30
2016,04,07,06,52,4.30
2016,04,07,06,53,4.30
2016,04,07,06,54,4.30
2016,04,07,06,55,4.30
2016,04,07,06,56,4.20
2016,04,07,06,57,4.30
2016,04,07,06,58,4.30
2016,04,07,06,59,4.30
2016,04,07,07,00,4.30
2016,04,07,07,01,4.30
2016,04,07,07,02,4.30
2016,04,07,07,03,4.30
2016,04,07,07,04,4.30
2016,04,07,07,05,4.30
2016,04,07,07,06,4.30
2016,04,07,07,07,4.30
2016,04,07,07,08,4.30
2016,04,07,07,09,4.30
2016,04,07,07,10,4.30
2016,04,07,07,11,4.30
2016,04,07,07,12,4.30
2016,04,07,07,13,4.30
2016,04,07,07,14,4.30
2016,04,07,07,15,4.30
2016,04,07,07,16,4.40
2016,04,07,07,17,4.40
2016,04,07,07,18,4.40
2016,04,07,07,19,4.40
2016,04,07,07,20,4.40
2016,04,07,07,21,4.40
2016,04,07,07,22,4.40
2016,04,07,07,23,4.40
2016,04,07,07,24,4.50
2016,04,07,07,25,4.50
2016,04,07,07,26,4.50
2016,04,07,07,27,4.60
2016,04,07,07,28,4.60
2016,04,07,07,29,4.60
2016,04,07,07,30,4.60
2016,04,07,07,31,4.60
2016,04,07,07,32,4.60
2016,04,07,07,33,4.60
2016,04,07,07,34,4.70
2016,04,07,07,35,4.70
2016,04,07,07,36,4.70
2016,04,07,07,37,4.70
2016,04,07,07,38,4.70
2016,04,07,07,39,4.80
2016,04,07,07,40,4.80
2016,04,07,07,41,4.80
2016,04,07,07,42,4.80
2016,04,07,07,43,4.90
2016,04,07,07,44,4.90
2016,04,07,07,45,4.90
2016,04,07,07,46,4.90
2016,04,07,07,47,5.00
2016,04,07,07,48,5.00
2016,04,07,07,49,5.00
2016,04,07,07,50,5.10
2016,04,07,07,51,5.10
2016,04,07,07,52,5.10
2016,04,07,07,53,5.20
2016,04,07,07,54,5.20
2016,04,07,07,55,5.30
2016,04,07,07,56,5.30
2016,04,07,07,57,5.30
2016,04,07,07,58,5.40
2016,04,07,07,59,5.40
2016,04,07,08,00,5.40
2016,04,07,08,01,5.40
2016,04,07,08,02,5.40
2016,04,07,08,03,5.50
2016,04,07,08,04,5.50
2016,04,07,08,05,5.50
2016,04,07,08,06,5.60
2016,04,07,08,07,5.60
2016,04,07,08,08,5.60
2016,04,07,08,09,5.70
2016,04,07,08,10,5.70
2016,04,07,08,11,5.70
2016,04,07,08,12,5.80
2016,04,07,08,13,5.80
2016,04,07,08,14,5.90
2016,04,07,08,15,5.90
2016,04,07,08,16,6.00
2016,04,07,08,17,6.10
2016,04,07,08,18,6.10
2016,04,07,08,19,6.20
2016,04,07,08,20,6.30
2016,04,07,08,21,6.40
2016,04,07,08,22,6.40
2016,04,07,08,23,6.50
2016,04,07,08,24,6.60
2016,04,07,08,25,6.70
2016,04,07,08,26,6.70
2016,04,07,08,27,6.80
2016,04,07,08,28,6.80
2016,04,07,08,29,6.90
2016,04,07,08,30,7.00
2016,04,07,08,31,7.00
2016,04,07,08,32,7.10
2016,04,07,08,33,7.10
2016,04,07,08,34,7.20
2016,04,07,08,35,7.20
2016,04,07,08,36,7.20
2016,04,07,08,37,7.30
2016,04,07,08,38,7.30
2016,04,07,08,39,7.30
2016,04,07,08,40,7.40
2016,04,07,08,41,7.40
2016,04,07,08,42,7.40
2016,04,07,08,43,7.40
2016,04,07,08,44,7.40
2016,04,07,08,45,7.50
2016,04,07,08,46,7.50
2016,04,07,08,47,7.60
2016,04,07,08,48,7.60
2016,04,07,08,49,7.60
2016,04,07,08,50,7.60
2016,04,07,08,51,7.70
2016,04,07,08,52,7.70
2016,04,07,08,53,7.70
2016,04,07,08,54,7.70
2016,04,07,08,55,7.80
2016,04,07,08,56,7.80
2016,04,07,08,57,7.80
2016,04,07,08,58,7.80
2016,04,07,08,59,7.90
2016,04,07,09,00,7.90
2016,04,07,09,01,8.00
2016,04,07,09,02,8.00
2016,04,07,09,03,8.10
2016,04,07,09,04,8.10
2016,04,07,09,05,8.20
2016,04,07,09,06,8.30
2016,04,07,09,07,8.30
2016,04,07,09,08,8.30
2016,04,07,09,09,8.40
2016,04,07,09,10,8.40
2016,04,07,09,11,8.50
2016,04,07,09,12,8.50
2016,04,07,09,13,8.60
2016,04,07,09,14,8.70
2016,04,07,09,15,8.70
2016,04,07,09,16,8.80
2016,04,07,09,17,8.90
2016,04,07,09,18,9.00
2016,04,07,09,19,9.10
2016,04,07,09,20,9.20
2016,04,07,09,21,9.40
2016,04,07,09,22,9.50
2016,04,07,09,23,9.60
2016,04,07,09,24,9.80
2016,04,07,09,25,9.80
2016,04,07,09,26,9.90
2016,04,07,09,27,10.00
2016,04,07,09,28,10.10
2016,04,07,09,29,10.20
2016,04,07,09,30,10.30
2016,04,07,09,31,10.30
2016,04,07,09,32,10.40
2016,04,07,09,33,10.40
2016,04,07,09,34,10.40
2016,04,07,09,35,10.40
2016,04,07,09,36,10.50
2016,04,07,09,37,10.50
2016,04,07,09,38,10.60
2016,04,07,09,39,10.60
2016,04,07,09,40,10.60
2016,04,07,09,41,10.70
2016,04,07,09,42,10.70
2016,04,07,09,43,10.80
2016,04,07,09,44,10.80
2016,04,07,09,45,10.80
2016,04,07,09,46,10.80
2016,04,07,09,47,10.90
2016,04,07,09,48,10.90
2016,04,07,09,49,10.90
2016,04,07,09,50,10.90
2016,04,07,09,51,10.90
2016,04,07,09,52,10.90
2016,04,07,09,53,10.90
2016,04,07,09,54,10.90
2016,04,07,09,55,11.00
2016,04,07,09,56,11.00
2016,04,07,09,57,11.10
2016,04,07,09,58,11.10
2016,04,07,09,59,11.20
2016,04,07,10,00,11.20
2016,04,07,10,01,11.30
2016,04,07,10,02,11.30
2016,04,07,10,03,11.30
2016,04,07,10,04,11.40
2016,04,07,10,05,11.40
2016,04,07,10,06,11.50
2016,04,07,10,07,11.60
2016,04,07,10,08,11.70
2016,04,07,10,09,11.70
2016,04,07,10,10,11.80
2016,04,07,10,11,11.80
2016,04,07,10,12,11.80
2016,04,07,10,13,11.90
2016,04,07,10,14,11.90
2016,04,07,10,15,11.90
2016,04,07,10,16,12.00
2016,04,07,10,17,12.00
2016,04,07,10,18,12.00
2016,04,07,10,19,12.00
2016,04,07,10,20,12.10
2016,04,07,10,21,12.10
2016,04,07,10,22,12.10
2016,04,07,10,23,12.10
2016,04,07,10,24,12.20
2016,04,07,10,25,12.20
2016,04,07,10,26,12.20
2016,04,07,10,27,12.30
2016,04,07,10,28,12.30
2016,04,07,10,29,12.40
2016,04,07,10,30,12.40
2016,04,07,10,31,12.50
2016,04,07,10,32,12.50
2016,04,07,10,33,12.60
2016,04,07,10,34,12.50
2016,04,07,10,35,12.50
2016,04,07,10,36,12.50
2016,04,07,10,37,12.50
2016,04,07,10,38,12.60
2016,04,07,10,39,12.60
2016,04,07,10,40,12.70
2016,04,07,10,41,12.70
2016,04,07,10,42,12.80
2016,04,07,10,43,12.90
2016,04,07,10,44,13.00
2016,04,07,10,45,13.00
2016,04,07,10,46,13.10
2016,04,07,10,47,13.20
2016,04,07,10,48,13.20
2016,04,07,10,49,13.30
2016,04,07,10,50,13.30
2016,04,07,10,51,13.40
2016,04,07,10,52,13.40
2016,04,07,10,53,13.30
2016,04,07,10,54,13.30
2016,04,07,10,55,13.30
2016,04,07,10,56,13.30
2016,04,07,10,57,13.30
2016,04,07,10,58,13.30
2016,04,07,10,59,13.20
2016,04,07,11,00,13.20
2016,04,07,11,01,13.20
2016,04,07,11,02,13.20
2016,04,07,11,03,13.20
2016,04,07,11,04,13.20
2016,04,07,11,05,13.10
2016,04,07,11,06,13.10
2016,04,07,11,07,13.10
2016,04,07,11,08,13.10
2016,04,07,11,09,13.10
2016,04,07,11,10,13.20
2016,04,07,11,11,13.20
2016,04,07,11,12,13.20
2016,04,07,11,13,13.20
2016,04,07,11,14,13.20
2016,04,07,11,15,13.20
2016,04,07,11,16,13.20
2016,04,07,11,17,13.20
2016,04,07,11,18,13.20
2016,04,07,11,19,13.20
2016,04,07,11,20,13.20
2016,04,07,11,21,13.30
2016,04,07,11,22,13.30
2016,04,07,11,23,13.40
2016,04,07,11,24,13.40
2016,04,07,11,25,13.40
2016,04,07,11,26,13.40
2016,04,07,11,27,13.40
2016,04,07,11,28,13.40
2016,04,07,11,29,13.40
2016,04,07,11,30,13.30
2016,04,07,11,31,13.30
2016,04,07,11,32,13.30
2016,04,07,11,33,13.30
2016,04,07,11,34,13.30
2016,04,07,11,35,13.30
2016,04,07,11,36,13.30
2016,04,07,11,37,13.30
2016,04,07,11,38,13.30
2016,04,07,11,39,13.20
2016,04,07,11,40,13.20
2016,04,07,11,41,13.30
2016,04,07,11,42,13.30
2016,04,07,11,43,13.30
2016,04,07,11,44,13.30
2016,04,07,11,45,13.40
2016,04,07,11,46,13.40
2016,04,07,11,47,13.40
2016,04,07,11,48,13.40
2016,04,07,11,49,13.30
2016,04,07,11,50,13.30
2016,04,07,11,51,13.30
2016,04,07,11,52,13.30
2016,04,07,11,53,13.30
2016,04,07,11,54,13.30
2016,04,07,11,55,13.20
2016,04,07,11,56,13.20
2016,04,07,11,57,13.10
2016,04,07,11,58,13.10
2016,04,07,11,59,13.00
2016,04,07,12,00,13.00
2016,04,07,12,01,12.90
2016,04,07,12,02,12.90
2016,04,07,12,03,12.90
2016,04,07,12,04,13.00
2016,04,07,12,05,13.00
2016,04,07,12,06,13.10
2016,04,07,12,07,13.10
2016,04,07,12,08,13.10
2016,04,07,12,09,13.10
2016,04,07,12,10,13.00
2016,04,07,12,11,13.00
2016,04,07,12,12,12.90
2016,04,07,12,13,12.90
2016,04,07,12,14,12.80
2016,04,07,12,15,12.70
2016,04,07,12,16,12.70
2016,04,07,12,17,12.70
2016,04,07,12,18,12.80
2016,04,07,12,19,12.80
2016,04,07,12,20,12.80
2016,04,07,12,21,12.80
2016,04,07,12,22,12.80
2016,04,07,12,23,12.90
2016,04,07,12,24,12.90
2016,04,07,12,25,12.90
2016,04,07,12,26,12.90
2016,04,07,12,27,12.90
2016,04,07,12,28,12.90
2016,04,07,12,29,12.90
2016,04,07,12,30,12.90
2016,04,07,12,31,12.90
2016,04,07,12,32,12.90
2016,04,07,12,33,12.90
2016,04,07,12,34,13.00
2016,04,07,12,35,13.00
2016,04,07,12,36,13.10
2016,04,07,12,37,13.10
2016,04,07,12,38,13.10
2016,04,07,12,39,13.10
2016,04,07,12,40,13.10
2016,04,07,12,41,13.10
2016,04,07,12,42,13.10
2016,04,07,12,43,13.10
2016,04,07,12,44,13.10
2016,04,07,12,45,13.10
2016,04,07,12,46,13.10
2016,04,07,12,47,13.10
2016,04,07,12,48,13.10
2016,04,07,12,49,13.10
2016,04,07,12,50,13.10
2016,04,07,12,51,13.10
2016,04,07,12,52,13.10
2016,04,07,12,53,13.00
2016,04,07,12,54,13.00
2016,04,07,12,55,13.00
2016,04,07,12,56,13.00
2016,04,07,12,57,13.10
2016,04,07,12,58,13.10
2016,04,07,12,59,13.10
2016,04,07,13,00,13.10
2016,04,07,13,01,13.10
2016,04,07,13,02,13.10
2016,04,07,13,03,13.10
2016,04,07,13,04,13.00
2016,04,07,13,05,13.00
2016,04,07,13,06,12.90
2016,04,07,13,07,12.90
2016,04,07,13,08,12.90
2016,04,07,13,09,12.90
2016,04,07,13,10,12.90
2016,04,07,13,11,12.90
2016,04,07,13,12,13.00
2016,04,07,13,13,13.10
2016,04,07,13,14,13.10
2016,04,07,13,15,13.20
2016,04,07,13,16,13.30
2016,04,07,13,17,13.40
2016,04,07,13,18,13.50
2016,04,07,13,19,13.50
2016,04,07,13,20,13.60
2016,04,07,13,21,13.60
2016,04,07,13,22,13.70
2016,04,07,13,23,13.70
2016,04,07,13,24,13.70
2016,04,07,13,25,13.70
2016,04,07,13,26,13.70
2016,04,07,13,27,13.70
2016,04,07,13,28,13.80
2016,04,07,13,29,13.80
2016,04,07,13,30,13.90
2016,04,07,13,31,14.00
2016,04,07,13,32,14.00
2016,04,07,13,33,14.10
2016,04,07,13,34,14.20
2016,04,07,13,35,14.20
2016,04,07,13,36,14.30
2016,04,07,13,37,14.30
2016,04,07,13,38,14.30
2016,04,07,13,39,14.40
2016,04,07,13,40,14.40
2016,04,07,13,41,14.40
2016,04,07,13,42,14.40
2016,04,07,13,43,14.50
2016,04,07,13,44,14.50
2016,04,07,13,45,14.60
2016,04,07,13,46,14.60
2016,04,07,13,47,14.70
2016,04,07,13,48,14.70
2016,04,07,13,49,14.80
2016,04,07,13,50,14.80
2016,04,07,13,51,14.80
2016,04,07,13,52,14.80
2016,04,07,13,53,14.80
2016,04,07,13,54,14.80
2016,04,07,13,55,14.80
2016,04,07,13,56,14.70
2016,04,07,13,57,14.70
2016,04,07,13,58,14.70
2016,04,07,13,59,14.60
2016,04,07,14,00,14.60
2016,04,07,14,01,14.50
2016,04,07,14,02,14.40
2016,04,07,14,03,14.30
2016,04,07,14,04,14.30
2016,04,07,14,05,14.20
2016,04,07,14,06,14.20
2016,04,07,14,07,14.10
2016,04,07,14,08,14.10
2016,04,07,14,09,14.10
2016,04,07,14,10,14.20
2016,04,07,14,11,14.20
2016,04,07,14,12,14.20
2016,04,07,14,13,14.20
2016,04,07,14,14,14.20
2016,04,07,14,15,14.30
2016,04,07,14,16,14.30
2016,04,07,14,17,14.30
2016,04,07,14,18,14.30
2016,04,07,14,19,14.40
2016,04,07,14,20,14.50
2016,04,07,14,21,14.50
2016,04,07,14,22,14.60
2016,04,07,14,23,14.60
2016,04,07,14,24,14.60
2016,04,07,14,25,14.70
2016,04,07,14,26,14.70
2016,04,07,14,27,14.70
2016,04,07,14,28,14.70
2016,04,07,14,29,14.80
2016,04,07,14,30,14.70
2016,04,07,14,31,14.70
2016,04,07,14,32,14.70
2016,04,07,14,33,14.70
2016,04,07,14,34,14.80
2016,04,07,14,35,14.80
2016,04,07,14,36,14.80
2016,04,07,14,37,14.80
2016,04,07,14,38,14.70
2016,04,07,14,39,14.70
2016,04,07,14,40,14.70
2016,04,07,14,41,14.70
2016,04,07,14,42,14.70
2016,04,07,14,43,14.70
2016,04,07,14,44,14.60
2016,04,07,14,45,14.60
2016,04,07,14,46,14.70
2016,04,07,14,47,14.70
2016,04,07,14,48,14.80
2016,04,07,14,49,14.80
2016,04,07,14,50,14.90
2016,04,07,14,51,15.00
2016,04,07,14,52,15.00
2016,04,07,14,53,15.10
2016,04,07,14,54,15.20
2016,04,07,14,55,15.30
2016,04,07,14,56,15.40
2016,04,07,14,57,15.40
2016,04,07,14,58,15.50
2016,04,07,14,59,15.60
2016,04,07,15,00,15.70
2016,04,07,15,01,15.70
2016,04,07,15,02,15.80
2016,04,07,15,03,15.90
2016,04,07,15,04,15.90
2016,04,07,15,05,16.00
2016,04,07,15,06,16.10
2016,04,07,15,07,16.20
2016,04,07,15,08,16.20
2016,04,07,15,09,16.30
2016,04,07,15,10,16.40
2016,04,07,15,11,16.40
2016,04,07,15,12,16.50
2016,04,07,15,13,16.60
2016,04,07,15,14,16.60
2016,04,07,15,15,16.70
2016,04,07,15,16,16.70
2016,04,07,15,17,16.70
2016,04,07,15,18,16.60
2016,04,07,15,19,16.60
2016,04,07,15,20,16.60
2016,04,07,15,21,16.60
2016,04,07,15,22,16.60
2016,04,07,15,23,16.60
2016,04,07,15,24,16.70
2016,04,07,15,25,16.70
2016,04,07,15,26,16.70
2016,04,07,15,27,16.80
2016,04,07,15,28,16.90
2016,04,07,15,29,16.90
2016,04,07,15,30,17.00
2016,04,07,15,31,17.10
2016,04,07,15,32,17.10
2016,04,07,15,33,17.10
2016,04,07,15,34,17.10
2016,04,07,15,35,17.10
2016,04,07,15,36,17.10
2016,04,07,15,37,17.00
2016,04,07,15,38,17.00
2016,04,07,15,39,17.00
2016,04,07,15,40,17.00
2016,04,07,15,41,17.00
2016,04,07,15,42,17.00
2016,04,07,15,43,17.00
2016,04,07,15,44,17.00
2016,04,07,15,45,17.00
2016,04,07,15,46,17.10
2016,04,07,15,47,17.10
2016,04,07,15,48,17.10
2016,04,07,15,49,17.20
2016,04,07,15,50,17.30
2016,04,07,15,51,17.30
2016,04,07,15,52,17.40
2016,04,07,15,53,17.40
2016,04,07,15,54,17.40
2016,04,07,15,55,17.40
2016,04,07,15,56,17.40
2016,04,07,15,57,17.40
2016,04,07,15,58,17.40
2016,04,07,15,59,17.50
2016,04,07,16,00,17.50
2016,04,07,16,01,17.60
2016,04,07,16,02,17.60
2016,04,07,16,03,17.60
2016,04,07,16,04,17.60
2016,04,07,16,05,17.60
2016,04,07,16,06,17.60
2016,04,07,16,07,17.60
2016,04,07,16,08,17.70
2016,04,07,16,09,17.70
2016,04,07,16,10,17.70
2016,04,07,16,11,17.70
2016,04,07,16,12,17.70
2016,04,07,16,13,17.70
2016,04,07,16,14,17.80
2016,04,07,16,15,17.80
2016,04,07,16,16,17.80
2016,04,07,16,17,17.90
2016,04,07,16,18,17.90
2016,04,07,16,19,18.00
2016,04,07,16,20,18.00
2016,04,07,16,21,18.00
2016,04,07,16,22,17.90
2016,04,07,16,23,17.90
2016,04,07,16,24,17.90
2016,04,07,16,25,17.90
2016,04,07,16,26,17.80
2016,04,07,16,27,17.80
2016,04,07,16,28,17.80
2016,04,07,16,29,17.80
2016,04,07,16,30,17.90
2016,04,07,16,31,17.90
2016,04,07,16,32,17.90
2016,04,07,16,33,17.90
2016,04,07,16,34,17.90
2016,04,07,16,35,17.80
2016,04,07,16,36,17.70
2016,04,07,16,37,17.70
2016,04,07,16,38,17.60
2016,04,07,16,39,17.50
2016,04,07,16,40,17.50
2016,04,07,16,41,17.40
2016,04,07,16,42,17.40
2016,04,07,16,43,17.30
2016,04,07,16,44,17.30
2016,04,07,16,45,17.30
2016,04,07,16,46,17.30
2016,04,07,16,47,17.30
2016,04,07,16,48,17.30
2016,04,07,16,49,17.30
2016,04,07,16,50,17.30
2016,04,07,16,51,17.30
2016,04,07,16,52,17.30
2016,04,07,16,53,17.40
2016,04,07,16,54,17.40
2016,04,07,16,55,17.40
2016,04,07,16,56,17.40
2016,04,07,16,57,17.40
2016,04,07,16,58,17.40
2016,04,07,16,59,17.40
2016,04,07,17,00,17.40
2016,04,07,17,01,17.40
2016,04,07,17,02,17.50
2016,04,07,17,03,17.50
2016,04,07,17,04,17.50
2016,04,07,17,05,17.40
2016,04,07,17,06,17.40
2016,04,07,17,07,17.40
2016,04,07,17,08,17.40
2016,04,07,17,09,17.30
2016,04,07,17,10,17.30
2016,04,07,17,11,17.30
2016,04,07,17,12,17.30
2016,04,07,17,13,17.20
2016,04,07,17,14,17.20
2016,04,07,17,15,17.20
2016,04,07,17,16,17.20
2016,04,07,17,17,17.20
2016,04,07,17,18,17.10
2016,04,07,17,19,17.00
2016,04,07,17,20,16.90
2016,04,07,17,21,16.90
2016,04,07,17,22,16.80
2016,04,07,17,23,16.70
2016,04,07,17,24,16.60
2016,04,07,17,25,16.60
2016,04,07,17,26,16.60
2016,04,07,17,27,16.60
2016,04,07,17,28,16.60
2016,04,07,17,29,16.60
2016,04,07,17,30,16.60
2016,04,07,17,31,16.50
2016,04,07,17,32,16.50
2016,04,07,17,33,16.50
2016,04,07,17,34,16.50
2016,04,07,17,35,16.40
2016,04,07,17,36,16.40
2016,04,07,17,37,16.40
2016,04,07,17,38,16.40
2016,04,07,17,39,16.40
2016,04,07,17,40,16.40
2016,04,07,17,41,16.40
2016,04,07,17,42,16.40
2016,04,07,17,43,16.40
2016,04,07,17,44,16.40